Probability
19 32 29 29 13 13 3 0 3 0 0 3 0 3 0 3 0 3 23 0 0 0 0 0 0 0 0 0 3 10 10 6 10 10 6 0 3 6
6 19 32 35 35 19 13 0 3 3 0 0 0 3 0 0 0 3 0 0 0 0 0 0 0 0 0 0 0 0 0 0 0 3 0 0 0 0
0 3 13 23 32 42 29 19 3 3 3 0 0 13 3 0 0 0 0 3 0 0 0 0 0 0 0 0 0 0 0 0 0 0 0 0 0 0
0 0 0 10 19 26 32 32 23 16 3 3 6 19 6 6 6 3 0 0 0 0 0 0 0 0 0 0 0 0 0 0 0 0 0 0 0 0
0 0 0 0 3 19 23 19 32 10 23 13 10 26 6 3 3 0 0 0 0 0 0 0 0 0 0 0 0 0 0 0 0 0 0 0 0 0
0 0 0 0 0 0 6 23 32 29 32 19 23 32 10 3 3 0 0 0 0 0 0 0 0 0 0 0 0 0 0 0 0 0 0 0 0 0
0 0 0 0 0 0 0 3 13 26 16 23 29 23 6 6 3 0 0 0 0 0 0 0 0 0 0 0 0 0 0 0 0 0 0 0 0 0
0 0 0 0 0 0 0 0 0 3 13 19 29 23 23 10 6 0 0 0 0 0 0 0 0 0 0 0 0 0 0 0 0 0 0 0 0 0
0 0 0 0 0 0 0 0 0 0 0 10 6 19 23 16 6 0 0 0 0 0 0 0 0 0 0 0 0 0 0 0 0 0 0 0 0 0
0 0 0 0 0 0 0 0 0 0 0 0 6 13 3 16 13 3 0 0 0 0 0 0 0 0 0 0 0 0 0 0 0 0 0 0 0 0
0 0 0 0 0 0 0 0 0 0 0 0 0 0 0 0 0 3 0 0 0 0 0 0 0 0 0 0 0 0 0 0 0 0 0 0 0 0
0 0 0 0 0 0 0 0 0 0 0 0 0 0 0 0 0 0 0 0 0 0 0 0 0 0 0 0 0 0 0 0 0 0 0 0 0 0
0 0 0 0 0 0 0 0 0 0 0 0 0 0 0 0 0 0 0 0 0 0 0 0 0 0 0 0 0 0 0 0 0 0 0 0 0 0
0 0 0 0 0 0 0 0 0 0 0 0 3 0 0 0 0 0 0 0 0 0 0 0 0 0 0 0 0 0 0 0 0 0 0 0 0 0
0 0 0 0 0 0 0 0 0 0 0 0 0 0 0 0 0 0 0 0 0 0 0 0 0 0 0 0 0 0 0 0 0 0 0 0 0 0
0 0 0 0 0 0 0 0 0 0 0 0 0 0 0 0 0 0 0 0 0 0 0 0 0 0 0 0 0 0 0 0 0 0 0 0 0 0
0 0 0 0 0 0 0 0 0 0 0 0 0 0 0 0 0 0 0 0 0 0 0 0 0 0 0 0 0 0 0 0 0 0 0 0 0 0
0 0 0 0 0 0 0 0 0 0 0 0 0 0 0 0 0 0 0 0 0 0 0 0 0 0 0 0 0 0 0 0 0 0 0 0 0 0
0 0 0 0 0 0 0 0 0 0 0 0 0 0 0 0 0 0 0 0 0 0 0 0 0 0 0 0 0 0 0 0 0 0 0 0 0 0
0 0 0 0 0 0 0 3 3 0 0 0 0 0 0 0 0 0 0 0 0 0 0 0 0 0 0 0 0 0 0 0 0 0 0 0 0 0
0 0 0 0 0 0 3 3 3 0 0 0 0 0 0 0 0 0 0 0 0 0 0 0 0 0 0 0 0 0 0 0 0 0 0 0 0 0
0 0 0 0 0 0 0 3 0 0 0 0 0 0 0 0 0 0 0 0 0 0 0 0 0 0 0 0 0 0 0 0 0 0 0 0 0 0
0 0 0 0 0 0 0 0 0 0 0 0 0 0 0 0 0 0 0 0 0 0 0 0 0 0 0 0 0 0 0 0 0 0 0 0 0 0
Height
5739 5743 5747 5752 5757 5762 5767 5773 5778 5782 5787 5791 5795 5799 5803 5806 5809 5812 5813 5815 5815 5816 5816 5817 5817 5817 5818 5819 5821 5822 5824 5826 5828 5829 5831 5832 5835 5838
5724 5729 5735 5740 5746 5751 5757 5762 5768 5773 5778 5783 5788 5792 5796 5800 5803 5806 5808 5809 5810 5811 5811 5811 5812 5812 5812 5813 5814 5815 5817 5818 5820 5822 5823 5825 5827 5829
5709 5715 5721 5727 5733 5739 5745 5751 5757 5763 5768 5774 5779 5784 5789 5793 5796 5799 5802 5804 5805 5806 5806 5806 5806 5806 5807 5808 5808 5809 5811 5812 5813 5815 5816 5818 5820 5822
5692 5699 5705 5712 5718 5725 5732 5739 5745 5752 5758 5764 5770 5776 5781 5785 5789 5792 5795 5797 5799 5800 5801 5801 5801 5801 5801 5802 5803 5804 5805 5806 5808 5809 5810 5812 5813 5815
5673 5681 5688 5695 5703 5710 5717 5725 5733 5740 5747 5753 5760 5766 5772 5777 5781 5785 5788 5791 5793 5794 5795 5795 5796 5796 5796 5796 5797 5798 5800 5801 5802 5804 5805 5806 5808 5809
5652 5661 5670 5678 5686 5694 5702 5711 5719 5727 5734 5742 5749 5756 5762 5767 5773 5777 5781 5784 5786 5788 5789 5790 5790 5790 5790 5791 5792 5793 5794 5796 5797 5799 5800 5801 5803 5805
5631 5641 5650 5659 5669 5678 5687 5696 5704 5712 5721 5729 5737 5745 5752 5758 5763 5768 5773 5776 5779 5781 5783 5784 5784 5785 5785 5785 5786 5787 5789 5790 5792 5794 5796 5797 5798 5800
5611 5621 5630 5640 5651 5662 5672 5681 5690 5698 5708 5717 5725 5733 5741 5748 5754 5759 5765 5769 5772 5775 5776 5778 5778 5779 5779 5779 5780 5782 5784 5785 5787 5789 5791 5793 5794 5796
5593 5602 5611 5621 5633 5645 5656 5666 5675 5684 5695 5704 5712 5721 5729 5737 5744 5750 5755 5760 5764 5767 5770 5771 5772 5773 5773 5774 5775 5776 5778 5780 5782 5784 5785 5787 5789 5791
5578 5586 5594 5604 5615 5627 5639 5651 5660 5670 5681 5692 5701 5710 5717 5725 5732 5739 5746 5752 5756 5760 5763 5765 5766 5767 5768 5768 5769 5771 5773 5775 5776 5778 5780 5782 5784 5785
5566 5573 5581 5589 5599 5611 5625 5637 5648 5657 5667 5678 5688 5697 5705 5714 5722 5730 5737 5743 5748 5752 5756 5758 5760 5761 5761 5763 5764 5766 5767 5769 5771 5773 5775 5776 5778 5780
5556 5563 5570 5578 5585 5596 5608 5620 5633 5644 5656 5666 5676 5685 5694 5703 5711 5720 5727 5734 5740 5744 5748 5751 5753 5755 5756 5757 5759 5760 5762 5764 5766 5767 5769 5771 5773 5775
5547 5554 5561 5568 5575 5585 5595 5607 5618 5630 5643 5654 5664 5674 5684 5693 5701 5710 5718 5726 5732 5737 5741 5744 5746 5749 5751 5752 5754 5755 5757 5759 5760 5762 5764 5766 5768 5770
5539 5547 5554 5560 5567 5575 5585 5595 5606 5618 5630 5642 5653 5664 5674 5684 5693 5701 5709 5717 5723 5729 5733 5736 5739 5742 5745 5747 5749 5750 5752 5754 5755 5757 5759 5761 5762 5764
5533 5540 5547 5554 5561 5568 5576 5584 5595 5607 5619 5630 5643 5654 5665 5675 5683 5692 5700 5708 5715 5720 5725 5729 5733 5736 5739 5741 5743 5745 5747 5749 5750 5752 5754 5755 5757 5759
5528 5535 5542 5549 5555 5562 5568 5576 5586 5597 5608 5620 5632 5644 5654 5665 5675 5684 5692 5700 5707 5713 5718 5722 5726 5730 5733 5735 5738 5740 5741 5743 5745 5747 5749 5750 5752 5754
5525 5532 5538 5544 5551 5556 5562 5570 5578 5587 5598 5609 5622 5634 5646 5657 5667 5676 5685 5692 5700 5706 5711 5716 5720 5723 5726 5729 5732 5734 5736 5738 5739 5741 5743 5745 5746 5748
5523 5529 5535 5541 5546 5552 5557 5564 5571 5580 5590 5601 5613 5625 5637 5648 5659 5669 5677 5685 5692 5699 5704 5709 5713 5717 5720 5723 5726 5728 5730 5732 5734 5735 5737 5739 5741 5743
5521 5527 5533 5538 5543 5548 5553 5559 5566 5574 5583 5593 5605 5617 5628 5640 5651 5661 5670 5678 5685 5692 5698 5702 5707 5711 5714 5717 5719 5722 5724 5726 5728 5730 5732 5734 5736 5739
5520 5525 5530 5535 5540 5544 5549 5554 5560 5568 5576 5587 5598 5610 5622 5633 5644 5655 5664 5672 5679 5685 5691 5696 5700 5704 5708 5711 5713 5716 5718 5721 5723 5725 5727 5729 5731 5734
5519 5524 5528 5532 5537 5540 5545 5549 5555 5562 5571 5581 5593 5605 5616 5627 5638 5648 5657 5665 5672 5679 5685 5689 5693 5697 5701 5705 5708 5710 5713 5715 5717 5720 5722 5724 5726 5728
5518 5522 5526 5529 5533 5536 5540 5544 5550 5557 5567 5577 5589 5600 5612 5623 5633 5643 5651 5659 5666 5673 5678 5683 5687 5691 5695 5698 5701 5704 5707 5709 5711 5713 5716 5719 5720 5722
5518 5521 5524 5527 5530 5533 5536 5541 5547 5554 5563 5574 5586 5597 5608 5619 5629 5638 5646 5654 5661 5667 5672 5677 5681 5685 5689 5692 5695 5698 5701 5703 5705 5708 5710 5712 5714 5716
Wind_Speed
48 47 46 45 45 44 43 42 40 39 37 35 32 29 26 23 21 20 18 17 17 18 18 20 22 23 25 27 28 29 31 31 32 32 33 35 37 39
55 52 50 50 48 47 47 45 44 42 40 38 36 33 30 27 24 22 20 18 18 18 19 19 21 22 24 25 26 28 29 30 31 31 31 32 34 35
61 59 55 53 52 51 50 49 47 46 43 41 39 36 33 30 27 24 22 20 19 19 19 20 20 21 23 24 25 26 27 28 28 28 29 30 31 33
68 66 63 59 56 54 54 52 50 49 47 44 42 39 36 33 30 27 25 22 21 20 20 21 21 22 23 24 25 25 25 26 27 27 26 27 29 30
72 72 69 66 62 58 56 55 53 51 50 48 45 42 38 35 32 30 27 25 23 22 21 22 22 22 23 23 24 25 25 25 25 25 25 25 25 25
73 74 75 71 67 64 59 57 56 54 52 50 48 45 41 38 35 32 30 27 25 24 22 22 23 23 23 23 24 24 23 23 23 22 22 22 22 23
73 75 77 77 73 68 65 61 59 57 54 52 50 48 45 41 38 35 32 30 27 25 24 23 23 23 23 23 24 24 24 23 23 23 23 22 22 22
69 73 77 78 78 73 69 66 62 59 55 54 52 50 47 45 42 38 35 32 29 27 25 24 23 23 22 23 23 24 24 24 24 23 23 22 22 22
60 65 72 76 79 78 74 69 67 62 59 56 53 52 50 47 45 41 38 35 31 29 26 24 23 23 23 23 23 24 24 24 24 23 23 22 22 21
51 55 61 69 74 77 76 73 69 64 61 59 55 52 51 49 47 45 41 37 33 30 27 24 24 23 23 23 23 23 24 23 23 23 23 22 21 21
44 46 50 56 65 71 73 73 72 68 63 59 59 56 54 51 49 46 42 38 34 31 28 25 24 24 23 23 23 22 22 22 22 23 22 22 21 21
40 40 42 47 54 62 68 71 72 69 66 62 59 58 55 53 49 46 43 39 35 31 28 26 25 24 23 22 22 21 21 22 22 22 22 22 21 21
36 36 36 40 46 52 59 64 67 68 68 65 59 55 54 53 50 46 43 39 36 32 29 28 26 25 23 22 21 21 20 20 20 21 21 21 21 21
33 34 34 35 38 44 50 56 63 65 66 65 61 55 52 51 49 46 43 40 37 34 31 29 28 25 24 23 22 21 21 20 20 20 21 21 21 21
31 32 32 32 33 37 43 49 54 60 63 63 61 56 51 47 45 45 44 41 38 35 32 30 28 26 24 23 21 21 21 20 20 21 21 21 21 21
29 29 29 29 30 31 36 42 47 52 56 58 58 56 53 50 46 44 43 41 39 36 34 31 29 27 25 23 22 21 21 21 21 22 22 22 22 22
27 27 27 27 28 29 31 36 42 47 50 52 54 54 51 49 46 44 42 41 40 37 35 32 30 28 27 25 24 23 22 22 22 23 23 22 22 22
26 25 25 25 26 28 29 32 37 42 45 48 52 51 49 48 47 45 42 40 40 38 35 33 32 30 28 26 26 24 23 23 22 22 22 22 21 21
25 25 24 23 24 26 27 30 34 39 42 48 51 50 49 49 47 45 44 41 40 38 36 34 33 30 29 28 26 25 24 23 23 22 22 22 22 22
24 24 24 24 24 24 26 28 32 38 42 48 51 50 49 48 48 46 44 41 39 38 36 35 33 32 30 28 27 26 25 24 24 23 23 23 23 24
22 23 23 23 23 23 25 27 31 37 42 47 50 50 48 49 48 46 44 42 40 38 36 35 34 32 30 28 27 26 25 25 24 24 24 25 25 26
19 20 21 21 22 22 23 26 32 36 42 47 50 48 47 48 46 45 43 41 39 38 36 34 32 30 29 28 27 27 26 25 25 25 25 26 26 27
16 17 17 19 20 21 24 28 32 36 42 47 48 47 48 47 44 43 41 39 38 36 34 32 31 29 28 28 27 27 26 26 26 26 26 27 28 28
Wind_Direction
242 239 236 233 231 230 229 228 228 227 225 225 228 231 234 238 245 251 259 268 275 279 282 281 274 268 264 259 256 253 251 249 248 249 249 247 246 246
241 240 237 234 232 230 229 229 228 228 227 226 227 230 233 237 243 249 256 265 273 278 281 282 275 268 265 261 257 253 251 250 248 248 249 249 248 247
241 240 238 236 233 231 230 229 229 229 229 228 228 228 231 235 240 247 253 260 270 276 279 280 276 269 265 262 257 253 251 250 247 246 247 247 247 246
239 238 238 237 234 232 230 230 229 229 229 230 229 229 230 232 237 243 249 257 265 273 276 278 277 272 267 262 256 253 251 250 249 249 248 247 246 244
238 237 237 236 235 232 230 229 229 229 229 230 230 230 230 231 235 240 246 253 260 269 274 275 276 272 267 261 257 254 251 249 248 248 249 249 248 246
238 236 236 236 235 233 230 228 228 228 228 229 230 230 230 230 233 237 242 249 255 264 271 273 274 272 267 261 256 253 250 247 247 248 250 251 249 247
238 236 235 235 234 234 232 229 227 227 227 228 229 230 230 230 232 234 239 245 251 259 266 270 272 270 266 261 255 252 248 247 247 248 249 251 250 248
237 235 234 234 233 232 232 231 229 227 226 227 227 228 228 229 230 232 236 241 246 253 261 267 270 268 265 261 255 251 249 248 248 250 250 251 252 250
236 235 234 232 232 232 231 230 229 228 227 227 226 227 227 228 229 230 232 236 242 249 256 263 267 267 263 258 254 250 248 249 249 251 253 255 255 254
233 232 232 232 231 231 230 229 229 230 228 227 227 226 225 225 226 228 229 233 238 245 251 258 262 263 262 257 253 249 247 248 249 251 253 253 254 254
229 229 229 229 230 229 229 229 229 230 230 230 228 227 225 224 224 225 226 230 234 239 245 252 257 259 258 255 251 249 247 248 249 250 251 252 252 253
224 225 225 225 226 227 227 228 228 229 231 231 229 226 224 223 222 221 222 225 229 234 240 246 251 254 253 250 249 249 249 249 249 250 250 249 250 250
220 220 221 222 223 224 225 226 226 227 228 230 229 226 225 222 221 220 220 222 226 231 236 241 245 247 247 246 247 248 248 249 249 250 248 247 249 250
214 216 217 218 220 220 221 222 224 225 226 227 227 225 223 221 220 221 220 221 224 228 232 238 241 242 244 244 245 246 246 246 250 251 248 248 248 247
211 213 214 216 217 217 218 219 220 223 224 225 226 226 223 221 219 218 219 220 223 226 230 235 237 240 242 242 243 244 245 247 249 249 247 246 243 242
209 212 213 215 216 216 217 218 217 218 219 221 223 225 225 222 219 218 218 220 223 225 227 231 234 237 238 239 240 242 243 245 247 248 245 243 240 239
206 210 212 214 216 217 216 217 215 214 214 216 218 220 221 219 217 216 216 218 221 223 225 228 231 235 236 238 241 243 244 244 245 245 244 242 239 238
203 206 207 210 214 214 214 214 213 209 207 208 209 210 213 213 213 213 215 217 218 220 223 226 229 233 236 238 240 242 243 244 243 242 241 238 235 233
201 203 206 209 211 210 211 210 208 204 203 202 201 202 205 208 210 211 213 215 217 218 222 225 228 232 236 238 239 240 241 241 240 239 238 235 233 232
202 204 207 209 210 211 211 210 208 203 201 199 197 197 199 201 204 207 210 213 215 218 221 223 227 231 234 236 238 240 240 239 239 237 236 235 233 233
202 205 209 212 213 213 212 211 206 201 198 195 193 192 195 197 200 203 208 210 213 217 221 223 226 230 234 236 237 238 239 237 237 237 236 235 235 236
201 206 210 215 217 216 213 207 199 195 193 192 190 190 192 194 197 202 205 208 212 216 220 223 227 230 233 234 235 236 237 236 235 236 237 237 238 240
196 203 210 215 216 212 207 202 195 189 188 186 187 189 190 192 196 201 205 208 212 215 219 224 227 230 231 233 235 235 235 236 237 238 240 241 243 245